RH
88 80 73 67 64 69 77 76 72 64 55 54 52 48 44 42 45 64 78 85 76 81 78 69 57 38 44 47 48 50 29 23 29 32 36 32 31 29 30 26 20 17 21
87 88 94 91 90 94 90 78 74 73 67 61 58 54 53 52 50 63 89 91 80 82 77 68 60 50 20 30 31 28 23 20 15 20 21 22 17 15 14 16 23 41 75
92 90 84 90 93 97 100 80 77 80 87 76 65 60 59 61 58 61 92 94 84 83 76 69 64 50 26 20 25 20 16 15 22 22 25 18 16 18 26 24 36 79 94
92 92 96 95 93 92 94 100 96 70 65 74 75 68 67 65 69 75 84 98 86 82 82 74 68 56 42 19 24 21 30 27 39 42 41 27 26 36 47 49 71 75 85
94 93 90 91 94 97 97 99 100 96 75 66 82 84 79 73 76 91 94 96 92 83 79 78 69 56 42 21 23 62 40 62 54 46 76 30 20 30 49 72 68 76 86
89 95 92 96 90 90 96 100 100 100 98 89 83 91 89 86 86 90 96 97 96 90 80 80 72 61 46 27 22 58 94 86 60 64 80 47 45 48 69 94 93 88 89
46 49 62 77 79 84 93 99 99 100 100 99 100 100 98 96 91 96 100 100 98 94 87 87 77 69 61 36 34 70 99 98 78 76 99 92 72 96 84 90 92 94 98
40 33 33 31 52 99 99 99 100 100 99 100 100 100 100 100 100 99 100 100 97 97 92 89 85 77 61 51 37 65 95 95 95 98 97 98 94 96 87 92 94 98 98
50 58 45 49 35 33 61 99 100 100 98 100 100 97 99 96 98 100 100 98 95 99 99 90 87 83 74 60 59 87 94 97 86 68 97 96 95 93 95 94 93 98 98
34 36 67 75 72 54 42 45 76 86 100 100 100 100 91 89 98 98 100 98 99 100 98 99 97 87 77 75 71 75 90 99 96 82 90 95 94 86 94 99 98 100 99
35 55 74 81 76 76 74 65 53 53 89 100 100 100 100 97 96 84 89 85 100 100 100 96 98 90 85 86 83 67 81 98 94 89 93 88 90 92 94 96 95 100 97
48 58 77 82 92 90 92 92 84 60 53 61 96 100 98 99 97 100 98 90 87 98 100 100 99 88 88 85 87 77 72 93 93 90 74 88 89 89 91 92 97 99 98
54 66 61 80 84 90 92 100 92 87 78 63 62 70 88 100 99 100 97 99 100 100 100 100 100 96 89 89 87 86 75 96 91 92 61 62 90 90 91 95 94 98 98
70 80 87 91 86 95 89 90 97 90 74 79 83 79 82 91 100 97 93 94 100 100 100 99 99 100 93 93 91 89 80 96 93 94 80 64 68 92 92 92 92 93 93
82 97 91 84 70 67 84 92 87 91 78 85 85 91 87 88 100 100 100 100 95 98 100 100 99 100 100 100 94 94 89 100 98 97 90 74 71 90 92 97 88 94 92
99 89 83 78 80 77 65 58 70 60 73 92 82 92 99 94 98 96 100 100 100 95 97 94 98 98 99 100 98 96 92 98 99 97 94 85 75 88 94 98 92 92 90
79 72 64 64 64 66 73 73 65 63 61 66 96 72 84 86 98 99 95 99 100 100 95 94 100 100 100 99 100 100 96 100 100 100 96 86 70 86 96 91 95 97 89
70 66 63 60 62 69 70 81 93 94 90 83 70 100 95 81 88 100 92 86 95 100 100 93 95 100 100 100 100 98 99 100 100 100 99 89 75 98 91 95 100 94 89
98 80 71 69 68 68 82 97 100 100 100 100 96 84 92 79 98 97 100 93 88 99 94 100 98 99 100 100 100 100 100 100 100 100 100 90 81 95 93 100 99 95 93
99 97 75 68 71 72 87 98 95 88 77 67 66 78 91 96 89 98 100 100 97 96 100 98 100 100 100 100 100 98 100 100 100 100 100 97 94 76 100 97 100 96 97
98 97 98 92 79 77 86 87 78 67 60 56 56 60 72 88 94 97 98 88 99 100 99 100 100 99 100 100 99 100 99 99 100 98 100 100 100 97 100 100 100 97 99
89 83 91 99 97 94 96 97 93 78 65 62 55 55 59 64 81 96 94 100 93 96 99 100 100 98 93 98 100 99 100 100 100 100 100 100 100 100 100 100 98 100 100
91 80 100 99 100 99 100 95 78 72 67 68 69 69 66 62 61 66 74 94 98 100 100 99 98 98 99 94 96 100 100 96 100 98 99 100 100 99 100 100 99 97 99
91 86 100 100 100 100 100 100 84 76 72 71 68 67 80 74 71 70 65 72 100 99 100 100 100 98 94 97 95 95 96 100 100 100 100 100 100 100 100 100 100 98 100
93 95 100 100 100 100 100 97 86 96 96 89 71 67 67 65 74 75 78 62 85 99 100 100 100 99 100 98 98 100 100 99 100 100 99 98 98 100 99 100 100 100 99
100 100 100 100 100 100 100 100 100 100 100 100 81 66 65 70 74 76 83 93 96 98 99 100 100 100 100 100 100 97 97 99 100 100 99 100 99 99 98 98 99 100 100
Wind_Speed
23 25 32 34 37 38 38 37 39 40 39 36 34 32 30 29 29 33 27 28 27 25 23 21 20 20 21 21 20 20 18 17 17 16 15 14 13 11 10 10 10 10 10
24 26 29 32 36 38 40 39 39 39 42 40 37 37 34 31 31 36 30 30 30 28 26 24 22 22 23 21 22 21 19 18 16 15 14 13 11 9 9 9 8 8 12
26 28 31 33 34 38 40 41 41 40 39 39 41 40 39 35 32 39 36 34 34 31 29 27 26 24 24 23 22 20 20 18 15 15 14 13 11 10 11 10 9 13 14
26 27 28 35 38 38 41 43 45 46 40 40 43 44 43 39 37 40 40 39 36 34 32 28 28 27 25 24 22 22 19 18 18 17 17 15 14 14 14 12 14 15 15
28 29 32 31 34 37 42 45 48 50 46 44 45 43 43 42 41 43 44 42 41 36 35 34 31 29 27 27 24 21 21 21 20 18 19 17 16 16 16 16 15 16 16
30 32 32 33 34 35 38 44 46 48 53 46 46 45 40 38 44 47 47 43 43 38 37 35 33 30 26 29 27 25 23 24 22 20 21 19 18 18 19 18 18 18 18
23 25 28 29 31 35 34 39 44 49 54 50 48 45 48 47 49 51 47 44 42 42 40 38 36 33 31 31 30 27 27 25 24 23 22 22 21 22 21 21 20 19 20
27 27 28 31 32 29 31 36 43 50 55 53 51 40 31 43 54 54 52 41 42 44 46 43 40 37 33 33 33 30 29 28 26 25 25 23 23 24 23 23 24 24 23
28 26 30 30 29 29 31 29 31 51 44 47 52 38 17 22 32 52 57 49 45 50 47 43 45 40 38 38 36 33 33 31 29 28 27 25 24 25 25 24 24 24 23
38 31 27 31 33 32 32 31 32 28 33 43 46 56 44 35 13 10 39 44 46 54 44 48 44 45 41 39 37 35 34 34 31 30 31 27 24 24 25 24 24 26 27
35 27 22 29 34 29 29 28 26 30 27 24 39 39 42 32 39 28 25 39 54 52 46 57 49 49 43 41 40 36 36 37 33 33 32 29 26 27 26 22 23 26 25
38 29 25 28 24 26 27 24 23 25 28 34 20 29 41 40 37 41 34 45 57 53 50 57 52 50 48 45 42 38 38 41 39 37 32 29 29 29 28 25 23 25 28
38 39 30 30 30 29 20 24 23 21 20 26 35 40 35 35 45 40 36 36 39 48 43 54 60 58 51 48 47 42 41 47 43 41 35 34 30 30 28 28 27 26 28
39 33 26 27 29 24 26 34 24 21 20 26 29 32 32 38 41 48 47 42 30 39 42 44 57 56 51 52 50 46 47 51 49 46 42 41 39 32 31 30 27 30 29
21 21 23 20 26 30 26 31 30 28 24 23 26 26 31 32 31 47 47 50 45 34 48 49 50 59 58 56 49 52 53 54 52 49 46 40 39 36 34 32 30 31 31
15 20 22 24 27 25 20 30 31 29 26 21 23 27 23 29 30 26 37 45 45 42 37 53 44 54 58 57 54 54 57 57 55 51 48 42 39 39 37 34 34 33 32
15 16 16 19 20 21 22 23 22 21 22 22 18 24 26 27 26 29 23 20 35 42 38 48 50 50 58 59 61 58 57 61 59 54 50 46 44 43 41 37 37 36 35
15 15 17 19 20 18 17 18 17 16 16 15 18 16 20 23 26 30 22 26 28 26 36 38 47 48 59 63 63 61 63 63 59 55 50 46 43 48 43 41 43 37 38
21 20 20 21 21 20 18 16 16 16 16 16 18 18 20 22 23 23 26 23 25 27 23 31 36 42 52 54 60 65 65 64 62 57 51 47 47 47 43 45 42 40 39
20 23 22 20 19 17 16 16 18 22 21 18 19 19 18 19 25 19 23 24 27 26 31 28 28 39 49 50 60 61 60 66 65 56 48 44 45 42 53 47 43 40 41
22 23 21 21 18 15 15 20 20 19 18 17 14 13 13 16 19 15 18 16 22 27 29 37 37 32 43 44 50 59 66 65 62 58 51 47 48 48 46 44 43 42 43
20 21 21 21 21 20 17 17 19 20 19 19 16 12 10 10 13 20 11 22 17 19 28 33 40 39 36 48 50 52 55 60 49 57 55 52 51 53 49 49 46 44 44
18 20 19 20 21 21 21 20 19 20 20 19 19 18 15 11 11 13 16 20 18 33 27 26 34 40 42 45 57 55 59 72 62 64 58 58 55 54 52 49 48 44 43
19 19 20 21 22 23 22 20 20 20 20 18 17 18 18 17 13 12 14 15 21 27 35 31 31 29 35 42 57 67 68 60 54 64 63 57 60 58 55 51 49 47 46
19 18 19 21 22 21 19 17 18 20 22 21 19 18 18 18 17 15 17 19 19 20 32 36 27 23 31 39 48 57 48 52 53 62 56 54 58 59 56 55 52 49 45
18 17 19 20 22 20 17 17 18 21 23 24 23 22 20 19 17 16 17 18 24 25 19 33 39 31 34 43 52 62 68 63 58 46 54 52 62 62 42 52 53 49 43
Wind_Direction
266 265 260 258 254 251 249 248 249 248 245 240 241 239 238 236 224 218 222 230 237 239 241 252 263 262 234 228 226 234 233 229 231 232 234 232 230 229 233 230 226 218 208
266 262 257 250 254 258 255 248 249 249 246 242 239 243 241 239 228 221 226 229 236 237 236 246 259 259 244 230 229 230 233 227 225 225 223 220 225 209 196 196 193 164 142
268 269 263 257 252 250 255 258 250 248 245 242 240 240 243 240 231 221 224 228 230 233 235 240 248 257 250 231 229 223 219 217 212 206 202 202 195 186 183 181 169 149 140
266 264 262 263 262 257 252 252 255 254 246 242 240 237 237 238 232 223 224 227 228 225 226 230 245 254 250 231 219 216 208 207 197 192 186 193 182 180 176 167 153 150 151
280 273 270 268 264 264 261 254 248 251 249 245 239 238 237 235 230 227 226 224 226 225 224 226 240 250 246 230 217 206 202 194 192 188 184 191 188 184 178 170 166 157 158
292 292 289 281 274 269 266 261 253 247 246 251 243 241 245 240 234 231 229 228 226 224 225 224 232 238 240 234 218 204 192 190 189 184 183 187 183 177 168 164 161 156 156
310 303 298 292 281 279 273 268 266 253 242 242 239 228 237 233 228 229 229 222 220 220 228 224 226 229 232 228 217 200 190 194 187 183 176 176 171 167 165 166 167 161 155
305 304 303 304 303 292 278 270 267 244 240 238 224 223 222 218 226 224 225 215 222 220 228 225 227 225 223 217 215 202 195 194 186 179 178 182 173 171 174 171 166 159 154
304 299 301 303 299 298 295 276 265 243 239 228 224 218 218 224 214 215 220 217 226 224 213 221 222 225 226 218 209 198 195 197 189 185 180 185 179 178 180 180 174 166 157
315 307 297 298 301 298 292 292 287 285 258 234 230 217 235 229 192 223 221 218 223 220 225 218 229 222 218 217 210 204 195 198 191 183 181 185 186 179 186 181 180 171 166
316 317 310 297 291 295 299 295 282 280 283 287 260 225 218 227 217 224 228 236 224 222 227 228 222 216 219 217 210 206 197 197 196 184 182 184 184 180 184 181 176 161 166
317 306 296 302 299 287 288 293 291 281 287 281 295 251 229 219 231 215 214 222 217 222 213 216 214 217 218 212 213 209 203 198 197 188 179 179 185 187 188 186 181 165 164
309 306 296 297 303 290 292 302 287 287 292 288 288 287 288 249 224 227 211 200 194 205 204 206 217 223 211 213 212 210 207 197 196 191 195 192 190 193 191 190 184 169 167
314 316 311 298 288 296 307 290 296 286 284 287 285 277 285 278 247 237 223 209 194 203 193 193 205 213 213 211 209 211 203 199 196 194 193 194 192 197 194 194 185 177 174
316 322 309 302 304 303 295 301 296 293 281 281 284 277 278 277 275 244 240 217 205 199 202 195 197 206 212 211 221 208 201 199 199 197 196 192 192 193 196 195 189 184 180
329 306 306 302 298 295 300 300 285 285 283 283 280 294 289 271 271 252 226 213 209 215 206 207 206 204 210 216 218 208 203 202 203 201 198 191 193 192 194 195 190 186 181
309 318 322 318 316 308 301 296 297 297 286 275 281 286 291 291 293 272 271 253 226 210 213 213 214 211 209 209 210 208 204 201 201 199 198 200 196 190 188 197 195 188 185
336 333 334 335 333 333 327 323 326 313 310 302 279 279 284 306 294 268 253 246 261 215 204 216 213 204 200 206 208 205 203 201 199 197 197 198 192 185 191 193 194 191 189
341 336 336 332 331 334 333 328 321 313 312 310 300 284 276 275 295 286 252 236 236 245 242 227 216 204 197 197 201 203 199 199 201 195 194 197 189 185 192 192 196 196 193
327 323 324 325 325 332 315 312 309 309 312 315 308 300 284 267 273 268 243 260 237 245 239 226 217 201 198 190 195 186 184 193 190 189 189 189 189 194 189 195 198 201 198
308 319 328 323 323 325 317 314 318 324 332 331 325 308 286 265 250 276 266 276 247 237 236 229 219 209 195 183 182 185 187 184 190 187 182 185 186 188 190 195 198 202 200
323 324 326 328 327 326 321 329 328 329 331 334 334 325 304 284 270 256 281 241 261 239 236 224 216 193 203 200 187 181 176 172 164 184 179 183 188 188 191 197 201 203 206
328 336 339 337 334 329 324 321 318 322 327 333 338 338 334 318 286 269 249 244 265 257 247 234 225 212 203 208 197 186 181 187 181 181 187 182 190 193 198 200 202 204 207
332 333 334 336 337 333 330 326 323 325 327 329 329 330 328 329 330 302 276 255 238 244 247 228 241 231 225 219 210 206 195 181 182 181 191 175 185 192 194 196 201 204 207
332 336 337 336 338 334 336 332 327 329 326 324 323 326 329 328 322 319 292 268 253 246 245 237 240 253 230 225 212 194 179 182 179 176 179 180 179 183 188 190 194 199 206
332 332 336 338 340 336 335 333 334 323 322 322 322 324 323 320 317 307 300 267 251 242 251 245 226 231 225 218 212 213 198 189 179 170 181 183 178 182 171 185 189 194 202